Regional Weather Roundup
Issued by NWS Goodland, KS

Home | Current Version | Previous Version | Text Only | Print | Product List | Glossary Off
Versions: 1 2 3 4 5 6 7 8 9 10 11 12 13 14 15 16 17 18 19 20 21 22 23 24 25 26 27 28 29 30 31 32 33 34 35 36 37 38 39 40 41 42 43 44 45 46 47 48 49 50

000
ASUS43 KGLD 261959
RWRGLD

GOODLAND FORECAST AREA HOURLY WEATHER ROUNDUP
NATIONAL WEATHER SERVICE GOODLAND KS
200 PM MDT FRI MAY 26 2017

...OFFICIAL OBSERVATIONS...

CITY           SKY/WX    TMP DP  RH WIND       PRES   REMARKS
GOODLAND KS    SUNNY     70  50  49 E9        29.90F
HILL CITY KS   SUNNY     77  51  40 NE8       29.88F
IMPERIAL NEB   SUNNY     69  44  40 VRB5      29.90F
MCCOOK NEB     SUNNY     74  47  38 VRB3      29.88F
AKRON CO       SUNNY     66  48  52 SE16G22   29.91F
BURLINGTON CO  MOSUNNY   69  52  54 SE9       29.93F
LIMON CO       MOSUNNY   70  50  49 SE28G33   29.91F
$$

...UNOFFICIAL OBSERVATIONS...

CITY           SKY/WX    TMP DP  RH WIND       PRES   REMARKS
NORTON KS      SUNNY     73  46  38 E6        29.88F
SHARON SPRINGS   N/A     73  54  51 E5G13       N/A
TRENTON NEB      N/A     71  32  23 CALM        N/A
$$




USA.gov is the U.S. government's official web portal to all federal, state and local government web resources and services.